Regional Weather Roundup
Issued by NWS

Home | Current Version | Previous Version | Text Only | Print | Product List | Glossary On
Versions: 1 2 3 4 5 6 7 8 9 10 11 12 13 14 15 16 17 18 19 20 21 22 23 24 25 26 27 28 29 30 31 32 33 34 35 36 37 38 39 40 41 42 43 44 45 46 47 48 49 50
000
ASUS42 KKEY 230810
RWRKEY

FLORIDA REGIONAL WEATHER ROUNDUP FOR THE FLORIDA KEYS
NATIONAL WEATHER SERVICE KEY WEST FLORIDA
400 AM EDT SAT SEP 23 2017

...SOUTH FLORIDA AND THE KEYS...

CITY           SKY/WX    TMP DP  RH WIND       PRES   REMARKS
FORT MYERS     CLEAR     76  76 100 NE6       29.83F
SW REGIONAL AP CLEAR     76  74  93 NE3       29.83F
NAPLES         PTCLDY    75  75 100 NE7       29.82F
MIAMI          PTCLDY    78  77  96 NW3       29.80F
WEST KENDALL   PTCLDY    75  73  93 CALM      29.80F
HOMESTEAD      CLEAR     75  75 100 NW6       29.79F
MARATHON       CLEAR     81  74  79 NE6       29.80S
BOCA CHICA NAS CLEAR     84  78  82 NE3       29.80F HX  95
KEY WEST INTL  CLEAR     82  75  79 E7        29.81F

...INTERNATIONAL WEATHER...

CITY           SKY/WX    TMP DP  RH WIND       PRES   REMARKS
NASSAU BAHAMAS NOT AVBL
CANCUN MEXICO  MOCLDY    75  75 100 NW2       29.82F
COZUMEL MEXICO PTCLDY    81  77  89 E6        29.80F

ADJACENT COASTAL WATERS...

STATION/POSITION TIME  SKY/WX   TEMP    WIND        PRES    WAVE
                                AIR SEA DIR/SP/G            HT/PER
                 (UTC)          (F)     (DEG/KT/KT) (MB)    (FT/S)
PULASKI SHOAL LI 0800            83      CALM  /  1 1009.6F
SAND KEY         0750            82                 1010.0F
LONG KEY         NOT AVBL
MOLASSES REEF    0700            81 85   30/ 11/ 12 1009.5
FOWEY ROCKS      0700            82 84   60/ 10/ 11 1010.0F
Buoy 42097       0730               85                N/A     2/ 4

$$



USA.gov is the U.S. government's official web portal to all federal, state and local government web resources and services.